This is the latest recevied weather packets stored in our database for station/object N8BAP. If no packets are shown the sender has not sent any weather packets the latest 10 day(s).
| Time | Temp. | Humidity | Pressure | Rain* | Wind** | Luminosity | Snow |
|---|---|---|---|---|---|---|---|
| 1778160684 | 10.56° C | 61% | 1020.1 hPa | 0 mm | - | 415 W/m² | - |
| 1778160381 | 10.56° C | 61% | 1020 hPa | 0 mm | - | 384 W/m² | - |
| 1778160076 | 10° C | 60% | 1020.1 hPa | 0 mm | - | 368 W/m² | - |
| 1778159774 | 10° C | 61% | 1020 hPa | 0 mm | - | 317 W/m² | - |
| 1778159471 | 10° C | 62% | 1020.2 hPa | 0 mm | - | 304 W/m² | - |
| 1778159168 | 9.44° C | 61% | 1020.2 hPa | 0 mm | - | 308 W/m² | - |
| 1778158866 | 9.44° C | 65% | 1020.3 hPa | 0 mm | - | 287 W/m² | - |
| 1778158564 | 9.44° C | 63% | 1020.4 hPa | 0 mm | - | 274 W/m² | - |
| 1778158261 | 9.44° C | 64% | 1020.4 hPa | 0 mm | - | 277 W/m² | - |
| 1778157958 | 9.44° C | 71% | 1020.2 hPa | 0 mm | - | 259 W/m² | - |
| 1778157656 | 8.89° C | 70% | 1020.2 hPa | 0 mm | - | 231 W/m² | - |
| 1778157353 | 8.89° C | 70% | 1020.2 hPa | 0 mm | - | 207 W/m² | - |
| 1778157050 | 8.89° C | 70% | 1020.2 hPa | 0 mm | - | 204 W/m² | - |
| 1778156745 | 8.33° C | 73% | 1020 hPa | 0 mm | - | 193 W/m² | - |
| 1778156441 | 8.33° C | 74% | 1020.3 hPa | 0 mm | - | 56 W/m² | - |
| 1778156137 | 7.78° C | 76% | 1020 hPa | 0 mm | - | 72 W/m² | - |
| 1778155833 | 7.78° C | 76% | 1020 hPa | 0 mm | - | 66 W/m² | - |
| 1778155529 | 7.78° C | 77% | 1019.9 hPa | 0 mm | - | 53 W/m² | - |
| 1778155227 | 7.78° C | 79% | 1020.3 hPa | 0 mm | - | 130 W/m² | - |
| 1778154923 | 7.78° C | 79% | 1020.3 hPa | 0 mm | - | 47 W/m² | - |
| 1778154619 | 7.22° C | 81% | 1020.2 hPa | 0 mm | - | 63 W/m² | - |
| 1778154315 | 7.22° C | 81% | 1020.2 hPa | 0 mm | - | 71 W/m² | - |
| 1778154012 | 7.22° C | 82% | 1020.3 hPa | 0 mm | - | 62 W/m² | - |
| 1778153709 | 6.67° C | 82% | 1020.2 hPa | 0 mm | - | 58 W/m² | - |
| 1778153407 | 6.67° C | 84% | 1020.1 hPa | 0 mm | - | 56 W/m² | - |
* Rain latest hour (hover to see other rain measurements)
** Current wind speed in m/s (hover to see current wind gust speed)